Temp
-13 -13 -13 -13 -13 -14 -14 -14 -13 -13 -13 -14 -14 -14 -14 -14 -14 -14 -14 -14 -14 -14 -14 -14 -14 -14 -14 -14 -14 -15 -15 -14 -14 -14 -14 -14 -14 -14
-14 -14 -14 -14 -14 -14 -14 -14 -14 -14 -13 -14 -14 -14 -14 -14 -15 -15 -14 -15 -15 -15 -15 -15 -15 -15 -15 -16 -16 -16 -17 -17 -18 -18 -18 -18 -17 -16
-14 -14 -14 -15 -15 -15 -15 -15 -15 -14 -14 -15 -15 -15 -15 -15 -15 -15 -15 -15 -15 -15 -16 -16 -16 -17 -17 -18 -22 -23 -24 -24 -24 -24 -24 -23 -23 -22
-15 -15 -15 -15 -15 -15 -15 -15 -15 -15 -15 -15 -15 -15 -16 -16 -16 -16 -16 -17 -17 -16 -17 -17 -18 -20 -24 -25 -25 -26 -26 -26 -27 -27 -26 -26 -26 -25
-15 -16 -16 -16 -16 -16 -16 -16 -16 -16 -16 -16 -16 -16 -16 -16 -17 -17 -18 -18 -18 -19 -20 -22 -25 -26 -26 -26 -27 -27 -28 -28 -28 -29 -28 -28 -28 -28
-16 -16 -16 -16 -16 -17 -16 -16 -16 -16 -16 -16 -17 -17 -17 -18 -18 -18 -18 -18 -19 -21 -26 -27 -27 -27 -28 -28 -28 -28 -28 -29 -29 -29 -30 -29 -29 -29
-17 -17 -17 -17 -17 -17 -17 -17 -17 -17 -17 -17 -18 -18 -19 -19 -19 -18 -19 -20 -24 -27 -27 -28 -29 -29 -29 -29 -28 -28 -29 -29 -29 -30 -30 -29 -29 -29
-17 -17 -17 -17 -17 -17 -17 -17 -17 -18 -18 -19 -19 -19 -19 -19 -19 -20 -22 -25 -27 -28 -28 -29 -29 -29 -29 -29 -29 -29 -29 -29 -30 -30 -30 -30 -29 -29
-18 -18 -18 -18 -18 -18 -17 -18 -19 -19 -20 -20 -20 -20 -19 -19 -21 -24 -27 -28 -28 -28 -29 -28 -29 -29 -29 -29 -29 -29 -29 -29 -30 -31 -31 -30 -30 -30
-18 -18 -18 -18 -18 -18 -19 -19 -20 -21 -20 -20 -20 -20 -21 -23 -25 -27 -28 -28 -28 -29 -29 -28 -29 -29 -29 -30 -30 -30 -30 -30 -31 -32 -32 -31 -31 -31
-19 -19 -18 -18 -19 -19 -19 -20 -21 -21 -20 -20 -20 -22 -25 -27 -28 -28 -28 -28 -28 -29 -29 -29 -29 -29 -29 -30 -30 -30 -30 -31 -31 -32 -32 -32 -32 -32
-19 -19 -19 -19 -20 -20 -21 -21 -21 -20 -20 -20 -23 -26 -28 -28 -29 -29 -28 -28 -28 -29 -30 -29 -30 -29 -30 -31 -31 -31 -31 -32 -32 -32 -33 -33 -33 -33
-20 -20 -20 -20 -21 -21 -21 -20 -20 -20 -20 -22 -25 -27 -28 -29 -29 -29 -29 -29 -29 -30 -30 -30 -30 -30 -30 -31 -31 -32 -32 -32 -33 -33 -33 -34 -34 -34
-20 -20 -20 -21 -22 -21 -20 -20 -20 -20 -22 -25 -27 -28 -29 -29 -30 -29 -30 -30 -31 -30 -30 -30 -30 -30 -30 -31 -32 -32 -32 -33 -33 -33 -33 -34 -34 -35
-20 -21 -22 -22 -21 -20 -20 -21 -22 -24 -26 -26 -28 -29 -30 -30 -30 -30 -31 -31 -31 -31 -31 -30 -30 -30 -31 -31 -32 -32 -32 -33 -34 -34 -33 -34 -35 -35
-22 -22 -22 -21 -21 -20 -21 -23 -25 -26 -27 -28 -29 -30 -31 -31 -31 -31 -32 -32 -31 -31 -31 -31 -31 -31 -31 -32 -32 -32 -33 -33 -34 -35 -34 -34 -35 -35
-22 -22 -21 -21 -21 -23 -25 -26 -27 -28 -28 -29 -30 -31 -31 -32 -32 -32 -32 -32 -31 -31 -31 -31 -31 -31 -31 -32 -32 -32 -33 -34 -34 -34 -34 -34 -35 -35
-22 -21 -21 -22 -24 -26 -27 -28 -28 -28 -29 -30 -30 -31 -31 -31 -31 -31 -31 -31 -31 -31 -31 -31 -31 -31 -32 -32 -32 -33 -33 -34 -34 -35 -34 -34 -35 -36
-22 -22 -23 -25 -27 -27 -28 -28 -28 -29 -29 -30 -30 -30 -30 -30 -30 -31 -31 -31 -31 -31 -31 -31 -31 -31 -32 -32 -33 -33 -33 -34 -34 -35 -35 -34 -35 -36
-23 -25 -26 -27 -28 -28 -28 -28 -29 -29 -30 -30 -30 -30 -30 -30 -30 -30 -31 -31 -31 -31 -32 -32 -31 -31 -32 -33 -33 -34 -34 -34 -34 -35 -35 -35 -35 -36
-26 -27 -28 -28 -28 -28 -29 -29 -29 -29 -29 -29 -30 -30 -30 -30 -30 -30 -30 -31 -31 -31 -31 -31 -31 -32 -32 -33 -33 -33 -34 -34 -35 -35 -35 -35 -35 -35
-28 -28 -29 -29 -29 -30 -30 -30 -30 -30 -30 -30 -30 -30 -30 -30 -30 -30 -30 -30 -31 -31 -31 -32 -32 -32 -33 -33 -33 -34 -34 -34 -35 -35 -36 -36 -35 -35
-29 -29 -30 -30 -31 -31 -31 -31 -31 -31 -30 -30 -30 -30 -30 -30 -30 -30 -30 -30 -31 -31 -32 -32 -32 -32 -33 -33 -33 -34 -34 -34 -35 -35 -36 -35 -35 -35
Height
5752 5750 5747 5744 5740 5736 5732 5728 5723 5720 5717 5709 5701 5693 5685 5679 5671 5664 5657 5650 5643 5637 5630 5624 5619 5613 5606 5599 5591 5583 5576 5570 5566 5565 5567 5572 5578 5585
5741 5738 5735 5731 5727 5722 5718 5713 5707 5702 5698 5689 5681 5674 5666 5658 5650 5642 5634 5627 5618 5609 5601 5595 5588 5581 5575 5566 5557 5547 5538 5533 5530 5528 5528 5528 5532 5540
5730 5726 5723 5718 5713 5708 5703 5697 5691 5684 5679 5673 5663 5655 5648 5640 5630 5619 5611 5603 5596 5585 5575 5564 5554 5544 5534 5524 5517 5512 5509 5506 5503 5502 5500 5502 5503 5505
5718 5714 5709 5705 5699 5694 5688 5681 5674 5666 5661 5656 5645 5636 5628 5619 5610 5600 5585 5573 5567 5560 5548 5536 5523 5512 5504 5500 5495 5492 5488 5484 5482 5480 5477 5479 5476 5479
5705 5701 5696 5691 5685 5679 5672 5664 5656 5648 5641 5634 5627 5615 5605 5595 5588 5576 5564 5550 5536 5522 5510 5502 5496 5492 5487 5483 5478 5475 5471 5468 5464 5461 5458 5457 5456 5457
5692 5687 5682 5676 5670 5663 5656 5648 5639 5631 5622 5613 5604 5593 5582 5571 5561 5554 5545 5526 5513 5499 5488 5482 5478 5475 5470 5466 5463 5461 5457 5452 5446 5441 5437 5435 5435 5436
5678 5673 5667 5661 5655 5647 5639 5631 5622 5612 5602 5593 5582 5571 5560 5549 5537 5525 5515 5504 5491 5482 5477 5471 5463 5460 5456 5453 5449 5446 5440 5434 5428 5422 5417 5413 5412 5413
5664 5659 5653 5646 5639 5630 5621 5612 5601 5591 5581 5571 5560 5547 5536 5523 5512 5500 5487 5479 5477 5467 5463 5461 5453 5449 5444 5439 5434 5427 5421 5415 5408 5402 5397 5393 5390 5390
5651 5645 5638 5630 5622 5614 5605 5594 5582 5571 5559 5548 5538 5523 5512 5496 5487 5475 5466 5460 5458 5453 5449 5447 5440 5438 5432 5426 5419 5413 5406 5399 5391 5384 5378 5373 5370 5369
5636 5630 5623 5614 5606 5597 5589 5579 5566 5553 5543 5528 5512 5498 5485 5474 5463 5458 5453 5449 5445 5439 5433 5433 5428 5425 5419 5412 5404 5398 5391 5383 5374 5368 5362 5357 5354 5352
5621 5614 5607 5598 5589 5579 5571 5559 5548 5536 5522 5506 5490 5474 5462 5453 5445 5442 5438 5435 5430 5425 5419 5417 5415 5411 5405 5399 5391 5383 5376 5367 5359 5352 5346 5342 5339 5338
5606 5598 5589 5580 5570 5559 5550 5542 5532 5518 5504 5488 5472 5457 5447 5438 5431 5426 5423 5420 5415 5413 5405 5404 5401 5396 5394 5386 5378 5369 5361 5352 5344 5338 5333 5329 5328 5326
5591 5582 5572 5562 5552 5542 5532 5520 5507 5495 5480 5465 5453 5443 5435 5427 5420 5413 5407 5403 5400 5397 5391 5388 5387 5382 5377 5375 5368 5358 5349 5340 5332 5325 5321 5319 5318 5317
5574 5564 5555 5546 5536 5524 5510 5496 5482 5469 5455 5444 5435 5427 5420 5413 5407 5401 5395 5390 5386 5382 5379 5374 5372 5367 5363 5360 5356 5348 5339 5329 5320 5314 5310 5309 5309 5308
5556 5548 5539 5529 5516 5502 5486 5473 5461 5449 5439 5429 5420 5411 5404 5399 5393 5389 5384 5379 5375 5369 5363 5360 5357 5354 5349 5346 5343 5336 5328 5320 5310 5303 5300 5299 5300 5300
5540 5531 5521 5509 5495 5482 5467 5452 5441 5432 5425 5417 5408 5399 5392 5386 5381 5376 5372 5368 5364 5360 5350 5346 5344 5341 5337 5333 5330 5325 5316 5310 5301 5293 5288 5289 5290 5291
5527 5515 5501 5487 5473 5460 5448 5437 5429 5421 5414 5405 5398 5391 5383 5377 5371 5365 5359 5355 5351 5347 5343 5335 5330 5328 5325 5322 5318 5313 5307 5300 5291 5285 5279 5278 5279 5280
5508 5495 5481 5468 5457 5448 5439 5431 5420 5413 5405 5396 5389 5381 5375 5369 5363 5355 5348 5342 5339 5335 5330 5326 5323 5319 5315 5312 5307 5304 5297 5292 5284 5276 5270 5268 5268 5268
5487 5474 5464 5453 5444 5437 5430 5422 5413 5405 5397 5388 5381 5374 5368 5361 5354 5347 5339 5332 5328 5324 5319 5315 5312 5310 5307 5303 5297 5292 5290 5283 5276 5269 5262 5258 5258 5258
5469 5457 5448 5441 5434 5427 5418 5411 5404 5395 5387 5380 5373 5366 5359 5352 5346 5339 5332 5325 5320 5316 5312 5306 5303 5300 5297 5295 5291 5282 5277 5275 5268 5261 5255 5250 5248 5248
5453 5446 5439 5430 5422 5414 5407 5400 5393 5385 5378 5371 5364 5357 5350 5344 5338 5331 5325 5318 5312 5308 5304 5299 5295 5291 5289 5286 5282 5277 5269 5265 5261 5256 5249 5244 5240 5239
5444 5434 5425 5417 5410 5403 5396 5388 5381 5373 5367 5360 5354 5347 5341 5335 5329 5323 5317 5312 5306 5301 5297 5292 5289 5285 5281 5278 5274 5269 5263 5257 5253 5249 5243 5238 5234 5231
5431 5422 5414 5407 5400 5392 5384 5375 5368 5361 5355 5349 5343 5337 5331 5326 5320 5315 5309 5304 5299 5295 5291 5287 5283 5279 5275 5272 5267 5262 5256 5251 5246 5242 5236 5231 5227 5223
Wind_Speed
46 47 48 50 52 54 56 59 61 61 63 66 69 72 74 75 76 77 77 79 81 82 83 84 85 88 92 96 101 106 109 109 109 107 105 102 101 100
48 49 51 53 56 57 61 63 66 68 70 73 76 77 79 80 81 82 84 84 87 88 90 91 94 97 100 105 111 115 107 101 98 96 95 94 94 95
50 52 53 56 58 61 64 67 70 73 75 77 80 81 82 83 85 88 89 90 91 93 95 98 102 106 106 100 85 73 68 67 67 67 68 69 70 72
52 55 57 59 61 64 67 71 74 77 79 80 83 84 85 87 89 91 93 95 96 97 100 102 100 87 69 61 61 60 59 58 57 57 59 58 57 59
54 58 59 62 64 67 71 74 77 80 83 85 85 87 89 92 92 94 94 97 101 97 89 79 61 54 53 53 52 51 51 51 53 55 55 53 52 53
57 59 62 65 67 70 73 77 81 84 87 87 89 90 93 95 96 96 98 101 93 79 57 53 49 46 44 45 46 46 46 50 54 56 56 56 54 53
59 62 64 66 71 73 77 81 85 87 88 90 91 94 95 96 99 101 100 92 66 52 47 44 44 42 43 45 46 47 50 53 54 54 54 55 54 54
60 63 66 70 73 77 81 85 87 87 90 92 94 96 99 101 104 97 84 62 46 45 43 39 42 44 48 50 52 55 56 57 57 55 52 51 51 52
63 64 68 72 76 80 84 86 88 90 92 94 97 99 101 100 94 77 57 50 45 45 45 41 44 46 50 53 55 56 57 58 57 55 52 48 47 48
64 67 70 75 80 83 83 84 87 89 93 97 99 98 93 81 70 56 49 46 45 46 44 41 42 45 49 50 51 53 55 56 54 52 48 43 41 42
66 70 75 79 81 82 85 87 88 92 95 97 96 89 78 65 59 52 49 47 47 45 45 43 44 45 45 45 48 51 53 52 50 47 42 37 35 36
71 74 78 80 82 85 86 89 91 93 95 95 84 71 63 60 56 55 51 49 49 44 45 46 47 47 42 41 44 48 50 52 50 42 37 33 30 31
70 73 76 80 83 85 88 91 93 97 97 90 76 66 61 57 55 55 54 51 49 46 47 48 46 45 42 38 39 44 47 51 50 42 34 30 28 27
71 75 79 81 83 88 91 92 96 97 88 78 70 64 59 55 54 53 51 48 46 46 46 47 45 43 40 36 38 42 46 50 47 40 33 29 28 27
74 77 79 83 88 90 91 91 89 79 71 65 61 58 55 53 51 50 47 45 43 45 47 46 43 40 38 35 37 41 44 45 43 42 32 30 28 27
73 77 82 86 89 89 88 83 72 65 61 56 52 50 48 47 46 46 44 42 41 40 45 44 40 38 36 34 36 39 41 42 40 39 34 28 28 27
74 80 85 88 87 78 67 61 57 54 51 47 44 42 41 41 42 43 43 41 40 39 37 39 39 37 35 32 35 38 38 38 37 34 32 27 27 27
80 84 86 82 71 58 51 47 47 44 42 40 39 39 38 38 38 40 41 40 37 36 35 34 33 33 33 31 34 34 36 35 38 34 28 25 25 29
84 85 75 61 52 46 46 45 44 43 41 39 39 40 40 39 39 39 37 34 31 30 31 32 31 31 27 28 33 34 33 33 37 35 28 24 22 29
79 66 57 50 46 47 45 44 43 41 40 39 39 40 40 39 38 38 37 33 29 28 28 30 30 30 26 26 27 33 36 31 33 33 29 23 20 22
57 52 48 48 47 48 47 46 44 42 41 39 39 39 40 39 38 37 35 33 30 27 25 27 28 27 25 26 27 30 34 32 26 28 27 23 20 19
49 50 50 51 50 49 47 45 43 42 41 40 39 39 39 39 38 36 34 32 30 26 24 25 24 24 25 25 26 27 30 31 28 28 27 24 21 17
50 50 50 48 47 46 45 44 43 41 40 39 39 38 38 37 38 36 34 31 29 24 22 20 21 23 22 26 21 26 29 27 26 26 30 26 19 18
Wind_Direction
285 288 290 292 293 294 296 298 299 300 301 303 304 305 305 304 303 302 301 301 301 300 299 297 296 295 294 293 292 291 288 285 282 279 275 270 266 263
286 289 291 293 295 297 298 300 302 302 303 304 306 305 305 304 304 304 304 304 303 302 302 302 301 299 296 294 293 292 286 282 279 277 275 272 270 265
288 290 292 294 296 298 300 302 303 304 305 307 307 306 305 305 305 305 305 304 304 305 306 305 303 302 299 294 289 284 282 280 279 277 274 270 267 263
289 291 293 296 298 299 302 303 304 306 307 306 306 304 305 306 306 307 308 309 309 308 307 305 302 296 290 288 287 287 286 285 283 280 275 274 265 258
290 292 296 297 299 302 303 304 306 307 307 306 305 306 307 307 308 309 311 312 312 310 306 300 292 291 290 290 290 291 291 291 289 287 283 276 268 260
291 294 296 298 301 302 304 306 307 307 305 306 307 309 309 310 311 312 313 312 311 305 295 295 295 295 296 297 295 295 299 298 292 288 284 279 271 262
293 296 298 300 302 304 305 306 306 305 306 308 309 310 312 313 314 314 313 311 302 295 292 295 293 293 294 296 297 301 302 303 300 292 286 281 273 264
295 297 300 301 303 305 306 306 306 307 308 310 311 313 313 314 315 313 310 304 298 294 292 291 286 286 291 294 299 301 304 306 301 296 290 283 274 265
296 299 300 303 305 306 306 307 309 310 312 313 314 315 315 314 312 310 305 300 297 295 295 294 289 289 291 294 296 298 303 306 301 296 293 286 273 265
298 299 303 304 304 305 307 308 311 312 313 315 315 314 312 310 308 305 301 299 296 294 296 293 293 297 296 294 293 298 305 307 302 297 293 283 273 267
299 303 303 304 306 306 310 312 312 313 315 315 314 312 310 309 307 305 303 301 297 294 294 294 298 301 299 295 296 303 310 312 308 301 294 283 276 269
303 304 305 307 308 311 311 311 314 315 315 314 311 308 307 305 304 303 302 299 295 291 291 292 299 300 298 295 301 308 315 316 315 306 295 284 280 269
304 306 306 309 311 311 312 315 316 316 314 311 308 306 303 301 300 301 302 298 295 292 290 293 297 298 298 295 300 308 315 317 316 310 295 283 275 265
305 306 309 311 311 313 315 315 316 315 312 309 308 304 301 299 298 299 298 295 294 292 291 293 296 297 298 295 300 307 312 317 313 311 295 278 268 260
307 309 311 312 314 316 316 315 314 311 310 310 308 306 302 300 298 296 295 294 294 293 294 295 297 297 299 296 299 306 312 320 310 309 298 279 267 261
309 311 313 315 315 315 315 314 313 313 313 312 313 311 307 303 300 297 295 294 293 293 296 297 298 299 300 296 301 307 315 323 312 307 299 282 266 259
311 313 314 316 315 314 314 314 316 317 316 317 317 316 314 311 307 303 301 298 297 295 295 297 300 300 301 297 301 309 316 324 319 310 301 287 268 254
313 315 315 314 313 312 314 317 319 320 321 322 321 322 321 320 318 312 306 301 296 295 297 296 298 299 300 297 302 308 315 319 325 317 299 288 267 256
315 314 313 312 311 311 313 313 316 316 318 320 320 319 320 321 321 322 318 310 304 300 299 298 300 302 299 295 304 304 314 321 322 322 307 291 275 254
314 313 311 309 309 310 311 311 312 314 316 317 318 318 319 320 321 321 323 319 310 305 301 299 302 304 302 301 303 300 310 317 323 321 314 299 281 262
312 309 309 311 310 309 308 308 308 309 311 313 315 316 317 319 320 321 321 323 318 311 307 305 307 309 308 305 307 303 308 311 325 328 319 312 289 269
311 312 312 312 310 309 308 307 307 308 309 310 312 314 316 317 319 320 320 319 320 315 311 310 310 314 315 317 317 312 312 306 312 324 323 317 309 283
315 315 314 313 312 310 310 309 309 308 308 308 310 311 312 314 316 318 319 318 320 317 316 317 319 323 324 325 323 318 312 307 307 316 315 321 314 293